Vertical_Velocity
-1 -0 -1 1 -1 -1 -1 -0 -0 1 -2 1 1 -2 -4 2 3 -0 -2 0 1 1 -0 -2 -2 -0 0 1 3 1 -0 -1 -0 -2 -1 0 -1 -2 -1 -2 1 -1 -5 -6 -4
-0 -0 1 0 -2 -1 -1 -2 -0 -1 -0 -1 -0 -1 -0 2 0 4 3 -2 2 1 1 1 0 -2 -1 0 1 1 1 -1 1 -0 -1 1 -2 2 -0 -2 0 -3 -14 -16 -10
-2 -0 -1 -1 -1 -3 -1 -2 -2 -2 -2 -0 -1 -3 -3 -1 3 2 1 3 3 -1 -1 1 -0 1 1 1 1 2 2 -0 1 0 -0 0 -3 -1 -3 -2 -8 -1 7 4 -2
-0 -2 -2 0 -1 -1 -1 -2 -1 -0 -3 -2 -1 0 -1 -2 -7 2 -2 2 2 -0 -0 -0 0 0 1 -0 1 -1 -1 -1 -2 -1 -1 3 -3 1 -5 -4 -2 -6 -8 -11 -3
-2 -3 -1 -2 -2 -2 -1 -1 -2 -2 -2 -2 -2 -2 -1 0 -2 -3 1 -0 2 -1 1 0 -1 -0 1 -2 -0 0 -1 0 -2 -1 -2 3 -4 -1 -4 -1 -7 -7 -7 -11 -11
-0 -1 -1 -0 1 -2 -1 -0 -1 -2 -0 -1 -2 -4 0 -5 3 2 -1 -0 -1 -0 -2 3 2 3 0 1 2 1 1 1 -1 -0 -1 3 -7 0 -2 -2 -6 -10 -8 -7 -8
-2 -1 -2 0 -0 -1 -2 -0 0 -3 -0 -3 -2 2 -2 -2 0 2 -1 1 0 2 0 -2 4 1 2 2 3 1 -3 2 -1 -2 -1 2 -7 -1 -4 -3 -4 -3 -7 -6 -8
-1 -2 -2 -2 -2 -0 1 -1 -0 -1 -3 0 -1 0 2 -3 -1 -0 1 -0 2 3 4 4 6 5 -4 2 3 -1 -0 -2 2 -1 -3 4 -5 1 -2 -0 0 -1 -2 0 -2
0 -2 -2 -1 -1 -3 -2 -1 0 1 -4 -1 -1 2 0 -4 0 0 -1 3 0 -0 0 4 6 6 -0 1 0 0 1 -1 -1 -3 0 -1 -6 2 -4 -2 -3 -3 1 -1 -3
-1 -1 -3 -1 -2 -6 -0 -3 -1 -2 2 -6 -2 -1 -0 3 -2 1 1 2 2 1 13 -0 6 7 2 -1 0 0 -0 1 -1 -2 -4 -6 -1 -0 -9 -4 -2 -4 1 -4 -0
-4 -4 0 -1 0 -2 -8 -2 -4 1 -0 0 -4 -1 -1 2 -0 0 9 4 -0 -1 -2 2 5 1 4 -3 2 -1 0 -3 -0 2 1 0 -3 -2 -7 -5 -6 -3 -1 3 2
-2 -0 -3 -1 3 -9 -3 -3 -2 -9 11 -3 -1 -2 1 -1 1 -0 2 -1 -1 -0 -3 3 4 -1 1 1 3 -3 -0 -2 1 3 2 2 -3 -1 -2 -9 -7 -6 1 -2 1
1 -2 -2 -2 2 -8 0 -2 -5 -2 -7 11 -0 -0 0 1 -1 3 3 0 1 3 2 4 1 -0 -1 3 -0 -2 1 1 -3 -1 -1 -2 14 -1 -2 -14 -6 -8 -8 -10 -10
1 -1 -2 0 3 -4 -6 2 0 -2 -4 -1 -1 -1 2 -1 0 -1 1 -0 -2 4 2 5 -1 1 4 -2 2 1 0 -1 -1 -1 -4 -2 2 -0 4 1 -10 -9 -2 -1 4
2 -0 -2 9 19 -0 -5 -5 -2 -0 -9 -1 -5 1 2 -1 0 -1 2 2 5 4 4 -1 -1 -1 3 -3 3 -1 -3 -1 2 -0 -2 -1 -3 -5 1 16 5 6 7 2 -5
-5 -2 3 18 31 -2 12 2 -2 -4 -4 2 -6 0 1 -0 -0 2 -0 -2 3 4 1 1 1 4 2 -0 1 0 -4 -0 2 -1 -0 2 1 -3 -6 -5 2 -3 0 1 1
-5 13 26 36 18 -2 -2 5 -3 3 0 2 -9 0 2 -1 -0 -2 -1 1 1 -0 2 1 2 1 2 -2 4 -2 -2 -1 -2 -2 -0 1 -3 -6 -11 -2 -1 1 3 -0 -1
1 -2 -2 27 -4 -1 2 -2 -5 3 0 0 -7 -0 1 -0 1 2 1 0 1 -1 2 4 3 -1 -1 1 1 -3 2 -5 -8 -1 4 2 -0 -2 -9 -2 -5 -5 1 -3 -10
-0 3 -1 1 3 8 5 0 1 10 -1 -2 -5 1 1 -0 -1 1 -0 1 3 1 -1 -2 3 1 1 1 -2 4 -0 -2 1 3 6 3 1 4 -8 -7 -9 -2 1 1 -4
-2 1 -1 4 3 3 -7 -4 6 0 3 -1 -2 2 -2 1 -1 -2 1 1 1 1 2 1 1 0 1 1 1 -0 -0 1 -2 -3 -1 -1 3 5 6 8 5 -1 -3 1 -1
-1 -0 5 2 0 -5 -3 -3 -1 -2 7 2 1 -1 1 -2 -0 -0 3 -1 1 -0 3 0 1 -2 1 0 1 -0 1 0 3 2 -3 -3 -0 -1 -3 -3 1 -0 2 3 0
-5 2 -0 -1 -3 -5 6 -0 10 15 0 -0 -4 1 2 2 -1 -1 -0 1 -0 0 0 1 3 1 2 1 0 -0 1 -0 1 1 2 0 -2 -2 -4 3 -1 -0 -2 0 5
4 -2 1 1 -3 4 4 -2 -2 4 9 1 -2 3 3 3 -4 -0 4 1 -2 -0 1 3 0 0 2 1 1 -0 1 0 1 2 0 -3 -0 1 -5 -2 1 -0 -1 1 -1
-1 -6 3 -1 6 4 1 -5 -4 1 -0 -5 -2 8 4 1 2 -1 2 1 2 -0 1 2 1 1 1 1 0 -0 1 1 0 2 -0 -1 1 -1 -3 -3 -3 0 -0 2 -2
-1 1 5 4 4 -0 -2 9 5 1 -5 -1 5 6 7 -1 -0 2 0 1 1 1 2 1 1 1 1 0 0 1 -0 1 1 2 -1 -1 -1 0 -0 -4 -1 0 -0 1 -1
-1 -2 1 3 0 -1 -2 12 3 -4 -3 -2 2 3 2 -1 0 2 -1 1 1 0 0 1 1 -0 -1 0 1 1 0 2 -1 3 -1 -1 -1 -1 0 -5 -2 -2 1 -1 -1
-2 0 -2 3 2 -2 3 6 3 -1 3 3 9 -1 -2 2 2 1 -1 -1 0 1 1 -0 -1 -1 -0 -1 -0 2 1 0 1 1 -1 -0 2 -3 -2 -3 -1 -2 1 -1 -3
Height
5803 5800 5797 5794 5792 5789 5786 5783 5780 5778 5775 5773 5769 5767 5764 5762 5762 5761 5761 5758 5757 5755 5755 5754 5753 5751 5749 5747 5746 5745 5743 5741 5739 5736 5734 5731 5728 5724 5720 5716 5711 5705 5697 5690 5681
5797 5794 5791 5787 5785 5782 5780 5777 5775 5772 5770 5767 5764 5760 5758 5756 5754 5753 5751 5751 5750 5748 5747 5747 5745 5744 5742 5740 5739 5738 5736 5734 5733 5730 5727 5724 5720 5716 5712 5706 5700 5693 5682 5672 5663
5792 5788 5785 5781 5778 5774 5773 5769 5767 5765 5763 5759 5758 5755 5751 5748 5747 5746 5743 5742 5741 5740 5739 5738 5737 5736 5735 5732 5732 5730 5729 5728 5726 5723 5720 5716 5712 5707 5702 5695 5688 5680 5670 5657 5645
5786 5784 5780 5776 5772 5769 5766 5763 5760 5757 5755 5753 5749 5747 5745 5743 5741 5738 5737 5735 5733 5732 5732 5730 5728 5727 5727 5725 5724 5723 5722 5720 5719 5717 5714 5709 5704 5698 5692 5685 5675 5665 5654 5641 5626
5778 5776 5773 5770 5766 5763 5759 5756 5753 5750 5748 5745 5742 5740 5737 5735 5732 5729 5727 5726 5725 5724 5724 5722 5721 5718 5717 5716 5717 5716 5716 5714 5712 5709 5706 5700 5695 5688 5681 5673 5662 5650 5635 5620 5605
5771 5767 5765 5761 5759 5756 5752 5749 5746 5744 5741 5738 5736 5733 5729 5725 5722 5720 5719 5717 5717 5715 5715 5715 5713 5711 5709 5710 5710 5710 5708 5707 5704 5702 5698 5692 5686 5679 5672 5662 5648 5634 5620 5602 5586
5764 5761 5757 5753 5750 5748 5745 5743 5740 5737 5733 5732 5729 5725 5721 5717 5712 5711 5711 5709 5709 5708 5706 5705 5705 5703 5701 5703 5703 5702 5702 5699 5697 5694 5690 5685 5678 5671 5663 5652 5638 5623 5604 5586 5572
5755 5752 5750 5746 5743 5739 5736 5735 5733 5730 5726 5724 5721 5717 5713 5709 5704 5703 5703 5702 5701 5700 5699 5698 5698 5696 5694 5697 5696 5696 5695 5692 5690 5687 5683 5678 5670 5663 5654 5642 5628 5611 5591 5573 5563
5749 5745 5742 5738 5736 5733 5730 5727 5725 5723 5720 5716 5713 5709 5705 5700 5696 5695 5694 5694 5692 5692 5691 5691 5690 5688 5688 5690 5691 5690 5688 5686 5683 5681 5677 5671 5662 5654 5644 5632 5618 5599 5580 5566 5556
5741 5738 5734 5731 5729 5726 5722 5720 5718 5717 5713 5709 5705 5702 5698 5693 5688 5687 5686 5686 5684 5684 5683 5684 5683 5680 5680 5683 5684 5684 5682 5680 5678 5675 5669 5663 5655 5646 5636 5623 5608 5589 5571 5557 5547
5732 5729 5727 5725 5724 5720 5719 5714 5713 5710 5705 5702 5698 5695 5690 5686 5682 5680 5680 5678 5676 5675 5676 5675 5675 5673 5675 5677 5678 5678 5676 5674 5672 5669 5664 5657 5648 5639 5627 5614 5598 5579 5563 5552 5542
5723 5719 5717 5715 5714 5712 5710 5707 5705 5703 5701 5696 5690 5687 5684 5679 5677 5673 5671 5671 5669 5669 5669 5670 5668 5667 5669 5671 5673 5673 5672 5670 5667 5662 5658 5651 5643 5633 5619 5605 5590 5572 5558 5546 5539
5712 5710 5708 5707 5705 5704 5702 5700 5698 5695 5694 5692 5687 5683 5679 5675 5671 5668 5666 5664 5662 5661 5661 5661 5662 5663 5664 5666 5667 5668 5667 5665 5662 5657 5652 5646 5638 5625 5611 5598 5581 5560 5549 5541 5535
5703 5701 5698 5697 5696 5694 5693 5691 5691 5689 5687 5688 5683 5679 5675 5671 5668 5664 5660 5659 5656 5654 5655 5656 5656 5659 5660 5661 5663 5663 5661 5659 5656 5653 5648 5640 5632 5621 5607 5592 5572 5558 5550 5543 5533
5693 5691 5688 5685 5685 5687 5686 5685 5684 5684 5681 5682 5679 5675 5670 5669 5665 5661 5658 5656 5653 5651 5651 5652 5653 5653 5656 5656 5658 5659 5657 5655 5651 5649 5644 5635 5626 5616 5604 5591 5574 5557 5549 5541 5531
5684 5684 5681 5680 5677 5679 5678 5678 5678 5680 5676 5677 5675 5671 5668 5665 5662 5659 5656 5653 5651 5649 5648 5648 5649 5651 5652 5653 5653 5654 5653 5650 5649 5645 5639 5630 5622 5612 5599 5588 5571 5554 5548 5540 5532
5676 5677 5674 5671 5673 5669 5670 5670 5672 5671 5673 5672 5670 5667 5664 5662 5659 5655 5654 5652 5649 5648 5647 5646 5646 5647 5648 5650 5650 5650 5648 5647 5646 5640 5635 5627 5617 5609 5597 5583 5568 5554 5547 5540 5534
5666 5667 5667 5665 5667 5663 5662 5666 5664 5665 5665 5666 5665 5663 5660 5658 5655 5653 5651 5649 5646 5645 5645 5644 5645 5644 5645 5646 5647 5646 5646 5645 5640 5636 5632 5625 5616 5608 5594 5579 5564 5552 5547 5542 5538
5653 5655 5655 5658 5657 5655 5655 5657 5659 5660 5661 5660 5660 5658 5657 5654 5652 5649 5647 5646 5644 5642 5642 5640 5641 5641 5641 5642 5644 5643 5644 5643 5640 5635 5629 5623 5614 5604 5591 5575 5561 5551 5547 5544 5543
5642 5643 5645 5646 5647 5646 5647 5650 5654 5654 5654 5654 5654 5653 5652 5650 5648 5645 5644 5642 5639 5638 5637 5637 5638 5637 5638 5639 5640 5641 5642 5641 5636 5632 5626 5620 5612 5604 5592 5577 5562 5551 5548 5547 5546
5631 5632 5636 5636 5636 5637 5640 5644 5647 5647 5647 5648 5649 5649 5648 5646 5644 5642 5640 5638 5636 5634 5633 5632 5634 5635 5635 5636 5637 5639 5639 5636 5635 5631 5624 5618 5612 5603 5590 5578 5562 5551 5549 5549 5549
5621 5623 5626 5625 5627 5629 5632 5636 5638 5639 5641 5642 5643 5644 5643 5642 5640 5638 5636 5634 5632 5631 5630 5630 5630 5631 5632 5633 5634 5636 5635 5634 5632 5629 5623 5617 5612 5602 5590 5578 5563 5551 5552 5551 5551
5612 5614 5616 5616 5618 5621 5624 5627 5629 5632 5634 5636 5638 5639 5638 5637 5636 5634 5633 5631 5629 5628 5627 5627 5627 5628 5629 5632 5632 5633 5633 5632 5630 5627 5621 5617 5612 5602 5590 5579 5566 5554 5554 5554 5554
5605 5606 5607 5606 5609 5613 5614 5617 5621 5624 5626 5629 5632 5633 5633 5632 5632 5630 5629 5628 5626 5625 5624 5624 5624 5625 5627 5628 5630 5631 5631 5630 5628 5625 5620 5617 5612 5602 5591 5580 5567 5557 5555 5557 5559
5596 5598 5598 5599 5602 5605 5606 5610 5614 5617 5619 5623 5626 5628 5628 5628 5627 5626 5626 5625 5624 5622 5621 5621 5622 5623 5624 5626 5627 5628 5629 5628 5626 5624 5621 5617 5611 5602 5593 5583 5570 5560 5557 5560 5562
5588 5589 5589 5592 5594 5597 5600 5603 5605 5607 5611 5617 5620 5622 5622 5623 5623 5622 5622 5622 5621 5620 5619 5619 5619 5620 5621 5623 5624 5626 5626 5626 5625 5622 5620 5616 5610 5602 5594 5585 5573 5562 5558 5561 5564
5580 5581 5582 5584 5586 5590 5594 5598 5600 5601 5606 5611 5613 5616 5618 5618 5618 5618 5618 5619 5618 5618 5617 5616 5616 5617 5618 5620 5621 5624 5624 5624 5623 5621 5620 5615 5611 5603 5595 5588 5577 5564 5560 5563 5565